Location: Kerguer�zec
(48.4509°N, 4.7600°W)
Time: 07:54:21
(UTC+00:00)

Cosmos 2208 Rocket - Pass Details

Date: 09 April 2020
Orbit: 754 x 806 km, 74.0° (Epoch: 01 June)

Event Time Altitude Azimuth Distance (km) Brightness Sun altitude
Rises 21:27:41 0° 338° (NNW) 3,224 8.3 -22.0°
Reaches altitude 10° 21:30:04 10° 340° (NNW) 2,299 7.3 -22.3°
Maximum altitude 21:35:16 73° 66° (ENE) 803 3.9 -22.9°
Enters shadow 21:36:09 59° 124° (SE) 882 3.9 -23.0°
